CAPE
1348 232 184 206 140 31 32 6 0 0 34 167 165 96 35 34 69 222 171 215 93 67 163 103 79 83 60 29 0 0 0 0 0 0 0 0 0 0 0 0 0 13 102
1089 452 372 386 369 178 113 89 9 48 43 1 1 0 1 40 61 80 217 292 288 130 104 72 55 63 75 75 27 0 0 0 0 0 0 0 0 0 0 0 0 6 62
1186 788 524 481 477 166 127 87 28 35 12 0 0 0 11 57 32 53 45 89 351 168 111 88 98 145 145 137 125 84 28 16 7 0 0 0 0 0 0 0 0 0 15
1130 969 816 447 138 54 110 67 54 52 32 12 0 17 214 42 42 91 128 236 368 207 129 87 154 312 291 200 164 148 115 23 19 2 0 0 0 0 0 0 0 0 0
1151 1139 977 487 289 40 70 81 71 111 134 85 107 284 162 137 85 299 321 132 89 62 105 177 187 173 203 199 172 144 101 34 18 9 0 0 0 0 0 0 5 0 0
1261 1278 916 383 295 102 134 179 212 217 364 163 305 360 285 52 228 178 88 55 44 19 22 25 59 151 187 239 193 138 112 68 26 36 10 0 0 0 0 0 0 0 0
1555 1200 640 314 211 222 268 364 383 370 391 354 329 491 109 239 132 270 173 60 56 28 13 13 28 42 109 141 139 50 51 40 61 35 18 7 16 27 42 0 0 0 0
1430 967 442 357 293 332 388 433 431 445 538 647 733 403 372 242 253 430 209 77 44 30 21 19 3 18 56 80 30 1 0 0 0 0 0 5 13 12 4 0 0 0 0
1317 701 536 500 445 441 471 487 546 639 785 889 691 341 372 378 274 350 167 41 32 8 4 21 3 0 13 0 0 0 0 0 0 0 0 11 1 0 29 1 0 0 0
1371 943 532 527 504 454 486 567 699 830 893 774 529 445 59 220 208 95 70 46 26 22 26 6 1 7 13 0 0 0 0 0 0 0 3 10 1 4 5 4 2 3 11
1187 631 313 608 567 525 641 915 1025 962 770 537 428 61 146 109 59 43 74 68 45 27 6 17 3 0 0 0 0 0 0 0 0 0 3 5 0 1 3 27 89 28 2
668 315 279 309 485 836 1109 1306 845 725 620 326 124 34 52 76 83 53 70 45 17 0 0 0 1 0 0 4 3 0 0 0 0 1 5 0 0 0 1 67 173 91 3
651 398 348 163 38 41 698 1045 808 605 496 123 46 89 141 109 68 80 25 17 8 1 6 0 0 0 0 3 0 0 0 0 0 0 0 1 0 0 1 162 255 267 154
703 291 30 18 0 105 580 696 508 432 305 58 36 60 42 18 31 1 1 1 0 16 14 0 0 3 3 1 0 0 0 0 0 0 0 0 1 0 0 52 286 388 240
216 70 0 0 22 308 349 526 456 397 117 0 0 1 15 0 0 0 0 0 0 14 1 22 0 3 4 3 0 0 0 0 0 0 0 0 0 0 0 0 210 274 347
107 77 16 14 192 357 518 349 281 182 76 34 37 24 0 0 0 0 0 0 2 5 0 0 0 0 0 0 0 0 0 0 0 0 0 0 2 8 0 0 4 134 134
32 106 117 131 463 329 180 173 175 72 58 73 33 0 0 0 0 0 0 3 0 0 0 0 0 0 0 0 0 0 0 0 0 0 0 0 0 3 0 0 0 6 9
92 335 388 251 142 139 126 108 135 95 22 0 0 0 0 0 0 0 0 4 0 0 0 0 0 0 0 0 0 0 0 4 2 0 0 0 0 0 0 0 0 0 0
128 140 123 140 115 152 205 154 99 81 37 2 0 0 0 0 0 0 7 8 3 0 0 0 0 0 0 0 0 0 0 0 0 0 0 0 0 0 0 4 0 0 30
57 70 228 272 221 181 82 56 51 24 16 0 0 0 0 0 0 0 0 0 0 0 0 0 0 0 0 0 0 0 0 0 0 0 0 0 0 0 0 0 0 0 0
102 48 53 132 142 101 103 76 28 0 0 0 0 0 0 0 0 0 0 0 0 0 0 0 0 0 0 0 0 0 0 0 0 0 0 0 0 0 0 0 1 19 3
135 182 141 135 140 140 80 1 3 5 4 12 3 2 0 0 0 0 0 0 0 0 0 0 0 0 0 0 0 0 0 0 0 0 0 0 0 0 0 0 0 0 4
152 84 166 144 89 46 20 2 15 24 15 10 5 1 3 0 0 0 0 0 0 0 0 0 0 0 0 0 0 0 0 0 0 0 0 0 0 0 0 0 0 0 2
51 100 70 7 14 34 33 27 25 10 10 31 15 4 3 0 0 0 0 0 0 0 0 0 0 0 0 0 0 0 0 0 0 0 0 0 0 0 0 0 0 0 0
1 5 2 1 0 0 0 0 0 0 5 21 12 4 1 0 0 0 0 0 0 0 0 0 0 0 0 0 0 0 0 0 0 0 0 0 0 0 0 0 0 0 0
13 12 1 0 1 3 1 0 0 0 0 2 0 0 0 0 0 0 0 0 0 0 0 0 0 0 0 0 0 0 0 0 0 0 0 0 0 0 0 0 0 0 0
CIN
-89 -25 -20 -165 -273 -409 -365 -250 0 0 -274 -152 -115 -94 -138 -145 -96 -38 -43 -19 -29 -28 -22 -52 -15 -29 -27 -24 0 0 0 0 0 0 0 0 0 0 0 0 0 -1 -3
-96 -15 -32 -224 -221 -272 -313 -271 -276 -297 -264 -17 -14 -11 -10 -147 -119 -75 -30 -10 -6 -23 -48 -18 -38 -31 -25 -15 -10 0 0 0 0 0 0 0 0 0 0 0 0 0 -3
-77 -41 -34 -212 -208 -305 -302 -259 -331 -281 -186 0 0 0 -60 -91 -117 -93 -95 -67 -11 -24 -22 -19 -17 -10 -9 -4 -3 -5 -7 -4 -11 0 0 0 0 0 0 0 0 0 0
-82 -51 -42 -126 -30 -322 -292 -267 -251 -199 -185 -153 0 -85 -36 -90 -72 -55 -37 -25 -14 -18 -19 -28 -34 -7 -3 -7 -3 -4 -5 -9 -13 -1 0 0 0 0 0 0 0 0 0
-97 -42 -58 -27 -156 -226 -267 -235 -193 -171 -125 -109 -92 -62 -51 -43 -70 -27 -20 -44 -35 -43 -44 -35 -45 -36 -31 -21 -5 -8 -7 -14 -13 -8 0 0 0 0 0 0 0 0 0
-43 -37 -56 -160 -139 -230 -236 -203 -183 -165 -92 -61 -71 -59 -37 -46 -50 -15 -12 -17 -18 -97 -107 -76 -72 -136 -65 -27 -51 -24 -21 -8 -12 -11 -14 0 -1 0 0 0 0 0 0
-68 -59 -88 -110 -113 -244 -228 -186 -166 -131 -82 -62 -73 -37 -58 -37 -36 -24 -16 -24 -18 -24 -24 -32 -40 -53 -105 -51 -42 -25 -64 -40 -69 -32 -30 -61 -20 -24 -13 0 0 0 0
-42 -66 -125 -202 -77 -228 -187 -146 -130 -132 -93 -46 -30 -27 -49 -38 -61 -33 -22 -22 -12 -46 -98 -78 -119 -45 -36 -46 -53 -3 0 0 0 0 -5 -30 -18 -46 0 0 0 0 0
-47 -31 -16 -251 -226 -194 -150 -150 -152 -93 -60 -26 -23 -30 -25 -35 -50 -40 -28 -11 -6 -19 -34 -70 -73 -2 -50 0 0 0 0 0 0 0 -1 0 0 0 -16 0 0 0 0
-21 -44 -41 -141 -166 -172 -176 -211 -133 -68 -25 -18 -36 -27 -72 -71 -22 -46 -34 -33 -5 -20 -98 -42 -11 -70 -46 0 0 0 0 0 0 0 -44 -10 -2 0 0 0 -12 -13 -9
-17 -40 -113 -126 -116 -108 -148 -137 -62 -29 -21 -24 -8 -91 -97 -66 -50 -61 -47 -26 -3 -10 -12 -17 -5 0 0 0 0 0 0 0 0 0 -19 -11 -3 0 0 -21 -22 -128 0
-23 -30 -75 -53 -69 -72 -125 -67 -31 -33 -29 -14 -22 -105 -101 -82 -41 -51 -23 -4 -1 -5 0 0 -20 0 0 -10 -3 0 0 0 0 0 -3 -1 0 0 0 -24 -7 -69 0
-43 -63 -52 -68 -15 -12 -19 -12 -27 -39 -27 -11 -11 -104 -52 -36 -32 -15 -4 -1 -12 -3 -2 0 0 0 -1 0 -1 0 0 0 0 0 0 -1 0 0 0 0 0 -4 -61
-67 -25 -22 -13 0 -37 -31 -28 -18 -17 -12 -50 -156 -109 -83 -47 -5 -1 -15 -10 0 -2 0 0 0 -8 0 0 -1 0 0 0 0 0 0 0 -1 0 0 -4 0 -4 -23
-33 -3 -21 0 -115 -59 -26 -9 -18 -35 -34 0 0 -34 -60 0 0 0 0 0 -1 0 -1 -27 0 -2 0 0 0 0 0 0 0 0 0 0 -9 0 0 0 -2 -1 0
-18 -15 -160 -205 -119 -52 -20 -29 -60 -35 -27 -32 -45 -37 0 0 0 0 0 0 0 0 0 0 0 0 0 0 0 0 0 0 0 0 0 0 0 -1 0 0 0 -2 -3
-44 -179 -184 -149 -43 -19 -33 -21 -6 -9 -37 -20 -40 -1 0 0 0 0 0 0 0 0 0 0 0 0 0 0 0 0 0 0 0 0 0 0 0 -5 0 0 0 0 -70
-175 -14 -22 -10 -14 -16 -12 -22 -30 -29 -19 0 0 0 0 0 0 0 0 -1 0 0 0 0 0 0 0 0 0 0 0 -1 -1 0 0 0 0 0 0 0 0 0 0
-33 -27 -38 -75 -56 -33 -29 -39 -49 -51 -48 -15 0 0 0 0 0 0 0 0 0 0 0 0 0 0 0 0 0 0 0 0 0 0 0 0 0 0 0 -1 0 0 0
-56 -26 -26 -24 -25 -20 -11 -13 -22 -15 -3 0 0 0 0 0 0 0 0 0 0 0 0 0 0 0 0 0 0 0 0 0 0 0 0 0 0 0 0 0 0 0 0
-106 -61 -47 -25 -25 -30 -23 -47 -8 0 0 0 0 0 0 0 0 0 0 0 0 0 0 0 0 0 0 0 0 0 0 0 0 0 0 0 0 0 0 0 -4 0 0
-20 -9 -17 -38 -41 -24 -14 -2 -5 -5 -3 0 0 -1 0 0 0 0 0 0 0 0 0 0 0 0 0 0 0 0 0 0 0 0 0 0 0 0 0 0 0 0 -2
-14 -16 -39 -20 -17 -46 -35 -4 -5 -16 -15 0 0 0 0 0 0 0 0 0 0 0 0 0 0 0 0 0 0 0 0 0 0 0 0 0 0 0 0 0 0 0 0
-33 -11 -7 -2 -38 -34 -7 -8 -3 -4 -19 -5 -4 -1 -1 0 0 0 0 0 0 0 0 0 0 0 0 0 0 0 0 0 0 0 0 0 0 0 0 0 0 0 0
-2 -2 -1 -1 0 0 0 0 0 0 -10 -4 -4 0 -1 0 0 0 0 0 0 0 0 0 0 0 0 0 0 0 0 0 0 0 0 0 0 0 0 0 0 0 0
0 0 0 0 -7 -18 -9 0 0 0 0 -2 0 0 0 0 0 0 0 0 0 0 0 0 0 0 0 0 0 0 0 0 0 0 0 0 0 0 0 0 0 0 0
Wind_Speed
37 34 34 31 32 nan nan nan nan nan nan 27 27 nan nan nan nan 36 37 39 nan nan 43 44 nan nan nan nan nan nan nan nan nan nan nan nan nan nan nan nan nan nan 44
42 39 35 34 34 33 30 nan nan nan nan nan nan nan nan nan nan nan 41 42 44 41 39 nan nan nan nan nan nan nan nan nan nan nan nan nan nan nan nan nan nan nan nan
40 39 34 34 35 36 34 nan nan nan nan nan nan nan nan nan nan nan nan nan 49 44 45 nan nan 50 49 49 47 nan nan nan nan nan nan nan nan nan nan nan nan nan nan
39 36 36 37 37 nan 38 nan nan nan nan nan nan nan 40 nan nan nan 46 46 44 43 44 nan 47 50 52 48 45 36 36 nan nan nan nan nan nan nan nan nan nan nan nan
41 37 36 37 39 nan nan nan nan 38 38 nan 37 39 41 43 nan 47 46 48 nan nan 41 42 43 48 45 49 42 35 32 nan nan nan nan nan nan nan nan nan nan nan nan
42 41 38 38 37 38 41 38 37 38 39 39 39 41 41 nan 44 52 nan nan nan nan nan nan nan 39 33 30 30 30 30 nan nan nan nan nan nan nan nan nan nan nan nan
44 42 38 38 38 36 40 40 39 39 42 41 43 47 44 47 45 46 46 nan nan nan nan nan nan nan 31 33 26 nan nan nan nan nan nan nan nan nan nan nan nan nan nan
42 38 40 40 37 37 39 40 40 42 41 41 45 47 49 49 44 40 43 nan nan nan nan nan nan nan nan nan nan nan nan nan nan nan nan nan nan nan nan nan nan nan nan
42 35 40 41 39 39 39 40 42 42 37 37 44 43 45 41 30 38 38 nan nan nan nan nan nan nan nan nan nan nan nan nan nan nan nan nan nan nan nan nan nan nan nan
45 40 43 40 40 40 39 44 42 40 34 44 43 50 nan 30 19 nan nan nan nan nan nan nan nan nan nan nan nan nan nan nan nan nan nan nan nan nan nan nan nan nan nan
47 44 42 43 38 42 44 47 47 39 44 46 47 nan 47 42 nan nan nan nan nan nan nan nan nan nan nan nan nan nan nan nan nan nan nan nan nan nan nan nan nan nan nan
52 51 52 59 58 47 54 48 44 37 43 41 42 nan nan nan nan nan nan nan nan nan nan nan nan nan nan nan nan nan nan nan nan nan nan nan nan nan nan nan 28 nan nan
55 57 58 57 nan nan 34 42 46 40 50 42 nan nan 46 46 nan nan nan nan nan nan nan nan nan nan nan nan nan nan nan nan nan nan nan nan nan nan nan 23 27 41 30
49 51 nan nan nan 36 32 27 40 47 48 nan nan nan nan nan nan nan nan nan nan nan nan nan nan nan nan nan nan nan nan nan nan nan nan nan nan nan nan nan 26 38 38
49 nan nan nan nan 57 49 43 48 44 45 nan nan nan nan nan nan nan nan nan nan nan nan nan nan nan nan nan nan nan nan nan nan nan nan nan nan nan nan nan 30 29 42
48 nan nan nan 56 64 63 57 51 48 nan nan nan nan nan nan nan nan nan nan nan nan nan nan nan nan nan nan nan nan nan nan nan nan nan nan nan nan nan nan nan 33 38
nan 56 50 58 68 62 59 59 57 nan nan nan nan nan nan nan nan nan nan nan nan nan nan nan nan nan nan nan nan nan nan nan nan nan nan nan nan nan nan nan nan nan nan
nan 38 66 54 55 57 55 58 53 nan nan nan nan nan nan nan nan nan nan nan nan nan nan nan nan nan nan nan nan nan nan nan nan nan nan nan nan nan nan nan nan nan nan
60 54 60 64 59 53 53 52 nan nan nan nan nan nan nan nan nan nan nan nan nan nan nan nan nan nan nan nan nan nan nan nan nan nan nan nan nan nan nan nan nan nan nan
nan nan 50 60 62 57 nan nan nan nan nan nan nan nan nan nan nan nan nan nan nan nan nan nan nan nan nan nan nan nan nan nan nan nan nan nan nan nan nan nan nan nan nan
55 nan nan 53 41 40 45 nan nan nan nan nan nan nan nan nan nan nan nan nan nan nan nan nan nan nan nan nan nan nan nan nan nan nan nan nan nan nan nan nan nan nan nan
52 44 38 38 35 35 nan nan nan nan nan nan nan nan nan nan nan nan nan nan nan nan nan nan nan nan nan nan nan nan nan nan nan nan nan nan nan nan nan nan nan nan nan
46 nan 49 43 nan nan nan nan nan nan nan nan nan nan nan nan nan nan nan nan nan nan nan nan nan nan nan nan nan nan nan nan nan nan nan nan nan nan nan nan nan nan nan
nan 46 nan nan nan nan nan nan nan nan nan nan nan nan nan nan nan nan nan nan nan nan nan nan nan nan nan nan nan nan nan nan nan nan nan nan nan nan nan nan nan nan nan
nan nan nan nan nan nan nan nan nan nan nan nan nan nan nan nan nan nan nan nan nan nan nan nan nan nan nan nan nan nan nan nan nan nan nan nan nan nan nan nan nan nan nan
nan nan nan nan nan nan nan nan nan nan nan nan nan nan nan nan nan nan nan nan nan nan nan nan nan nan nan nan nan nan nan nan nan nan nan nan nan nan nan nan nan nan nan
Wind_Direction
315 311 307 309 310 nan nan nan nan nan nan 318 318 nan nan nan nan 318 321 328 nan nan 321 321 nan nan nan nan nan nan nan nan nan nan nan nan nan nan nan nan nan nan 235
308 309 306 305 304 306 308 nan nan nan nan nan nan nan nan nan nan nan 329 328 326 323 320 nan nan nan nan nan nan nan nan nan nan nan nan nan nan nan nan nan nan nan nan
300 301 299 299 304 308 314 nan nan nan nan nan nan nan nan nan nan nan nan nan 328 327 321 nan nan 314 314 310 310 nan nan nan nan nan nan nan nan nan nan nan nan nan nan
303 309 307 304 306 nan 310 nan nan nan nan nan nan nan 319 nan nan nan 327 327 331 325 318 nan 313 315 316 313 310 304 300 nan nan nan nan nan nan nan nan nan nan nan nan
303 304 301 302 302 nan nan nan nan 313 311 nan 315 318 321 321 nan 326 326 325 nan nan 313 312 314 317 323 315 304 302 302 nan nan nan nan nan nan nan nan nan nan nan nan
300 304 289 289 292 303 308 314 310 308 308 311 317 318 322 nan 323 325 nan nan nan nan nan nan nan 320 320 327 325 326 311 nan nan nan nan nan nan nan nan nan nan nan nan
306 303 293 291 294 303 305 307 307 305 307 317 319 318 320 321 328 329 321 nan nan nan nan nan nan nan 309 308 308 nan nan nan nan nan nan nan nan nan nan nan nan nan nan
297 296 296 296 297 302 299 301 300 299 313 317 321 319 317 318 324 324 318 nan nan nan nan nan nan nan nan nan nan nan nan nan nan nan nan nan nan nan nan nan nan nan nan
300 304 297 297 300 293 292 294 295 304 312 317 310 311 310 317 320 319 318 nan nan nan nan nan nan nan nan nan nan nan nan nan nan nan nan nan nan nan nan nan nan nan nan
302 307 297 300 294 289 292 292 298 301 305 305 309 310 nan 324 325 nan nan nan nan nan nan nan nan nan nan nan nan nan nan nan nan nan nan nan nan nan nan nan nan nan nan
300 294 287 283 293 287 281 282 292 299 301 301 305 nan 316 324 nan nan nan nan nan nan nan nan nan nan nan nan nan nan nan nan nan nan nan nan nan nan nan nan nan nan nan
283 285 290 287 250 248 267 271 279 286 301 315 314 nan nan nan nan nan nan nan nan nan nan nan nan nan nan nan nan nan nan nan nan nan nan nan nan nan nan nan 197 nan nan
289 290 294 297 nan nan 292 302 281 290 309 315 nan nan 306 303 nan nan nan nan nan nan nan nan nan nan nan nan nan nan nan nan nan nan nan nan nan nan nan 199 206 200 197
288 288 nan nan nan 303 308 273 300 316 315 nan nan nan nan nan nan nan nan nan nan nan nan nan nan nan nan nan nan nan nan nan nan nan nan nan nan nan nan nan 196 193 203
297 nan nan nan nan 296 285 298 312 313 310 nan nan nan nan nan nan nan nan nan nan nan nan nan nan nan nan nan nan nan nan nan nan nan nan nan nan nan nan nan 192 201 211
302 nan nan nan 296 294 304 311 298 303 nan nan nan nan nan nan nan nan nan nan nan nan nan nan nan nan nan nan nan nan nan nan nan nan nan nan nan nan nan nan nan 201 212
nan 287 285 286 290 299 306 308 310 nan nan nan nan nan nan nan nan nan nan nan nan nan nan nan nan nan nan nan nan nan nan nan nan nan nan nan nan nan nan nan nan nan nan
nan 280 279 281 288 295 299 299 304 nan nan nan nan nan nan nan nan nan nan nan nan nan nan nan nan nan nan nan nan nan nan nan nan nan nan nan nan nan nan nan nan nan nan
290 287 280 286 290 293 293 295 nan nan nan nan nan nan nan nan nan nan nan nan nan nan nan nan nan nan nan nan nan nan nan nan nan nan nan nan nan nan nan nan nan nan nan
nan nan 279 281 279 282 nan nan nan nan nan nan nan nan nan nan nan nan nan nan nan nan nan nan nan nan nan nan nan nan nan nan nan nan nan nan nan nan nan nan nan nan nan
291 nan nan 283 281 286 284 nan nan nan nan nan nan nan nan nan nan nan nan nan nan nan nan nan nan nan nan nan nan nan nan nan nan nan nan nan nan nan nan nan nan nan nan
281 287 284 307 304 284 nan nan nan nan nan nan nan nan nan nan nan nan nan nan nan nan nan nan nan nan nan nan nan nan nan nan nan nan nan nan nan nan nan nan nan nan nan
293 nan 297 304 nan nan nan nan nan nan nan nan nan nan nan nan nan nan nan nan nan nan nan nan nan nan nan nan nan nan nan nan nan nan nan nan nan nan nan nan nan nan nan
nan 291 nan nan nan nan nan nan nan nan nan nan nan nan nan nan nan nan nan nan nan nan nan nan nan nan nan nan nan nan nan nan nan nan nan nan nan nan nan nan nan nan nan
nan nan nan nan nan nan nan nan nan nan nan nan nan nan nan nan nan nan nan nan nan nan nan nan nan nan nan nan nan nan nan nan nan nan nan nan nan nan nan nan nan nan nan
nan nan nan nan nan nan nan nan nan nan nan nan nan nan nan nan nan nan nan nan nan nan nan nan nan nan nan nan nan nan nan nan nan nan nan nan nan nan nan nan nan nan nan